This is the latest recevied weather packets stored in our database for station/object KJ4YLO. If no packets are shown the sender has not sent any weather packets the latest 10 day(s).
| Time | Temp. | Humidity | Pressure | Rain* | Wind** | Luminosity | Snow |
|---|---|---|---|---|---|---|---|
| 1777929320 | 25° C | 34% | 1015.5 hPa | 0 mm | - | 278 W/m² | - |
| 1777929017 | 25° C | 36% | 1015.5 hPa | 0 mm | - | 264 W/m² | - |
| 1777928714 | 24.44° C | 36% | 1015.5 hPa | 0 mm | - | 336 W/m² | - |
| 1777928410 | 24.44° C | 34% | 1015.5 hPa | 0 mm | - | 309 W/m² | - |
| 1777928108 | 25° C | 37% | 1015.5 hPa | 0 mm | - | 248 W/m² | - |
| 1777927806 | 24.44° C | 35% | 1015.5 hPa | 0 mm | - | 274 W/m² | - |
| 1777927504 | 24.44° C | 34% | 1015.5 hPa | 0 mm | - | 300 W/m² | - |
| 1777927203 | 25° C | 34% | 1015.5 hPa | 0 mm | - | 360 W/m² | - |
| 1777926900 | 24.44° C | 33% | 1015.5 hPa | 0 mm | - | 368 W/m² | - |
| 1777926596 | 24.44° C | 34% | 1015.5 hPa | 0 mm | - | 396 W/m² | - |
| 1777926292 | 24.44° C | 34% | 1015.9 hPa | 0 mm | - | 358 W/m² | - |
| 1777925990 | 24.44° C | 35% | 1015.9 hPa | 0 mm | - | 332 W/m² | - |
| 1777925687 | 24.44° C | 34% | 1015.5 hPa | 0 mm | - | 339 W/m² | - |
| 1777925384 | 24.44° C | 32% | 1015.9 hPa | 0 mm | - | 377 W/m² | - |
| 1777925081 | 24.44° C | 33% | 1015.9 hPa | 0 mm | - | 445 W/m² | - |
| 1777924777 | 24.44° C | 33% | 1015.5 hPa | 0 mm | - | 350 W/m² | - |
| 1777924473 | 25° C | 30% | 1015.9 hPa | 0 mm | - | 407 W/m² | - |
| 1777924170 | 26.11° C | 31% | 1015.9 hPa | 0 mm | - | 464 W/m² | - |
| 1777923866 | 25.56° C | 30% | 1015.9 hPa | 0 mm | - | 639 W/m² | - |
| 1777923562 | 25° C | 31% | 1015.9 hPa | 0 mm | - | 672 W/m² | - |
| 1777923260 | 25° C | 32% | 1015.9 hPa | 0 mm | - | 634 W/m² | - |
| 1777922958 | 25° C | 33% | 1016.3 hPa | 0 mm | - | 674 W/m² | - |
| 1777922655 | 25° C | 30% | 1016.3 hPa | 0 mm | - | 601 W/m² | - |
| 1777922354 | 25° C | 33% | 1016.3 hPa | 0 mm | - | 583 W/m² | - |
| 1777922051 | 24.44° C | 30% | 1016.3 hPa | 0 mm | - | 675 W/m² | - |
* Rain latest hour (hover to see other rain measurements)
** Current wind speed in m/s (hover to see current wind gust speed)